Home   Weather   Mendrisio   Past weeks

Flag for Switzerland Past Weather in Mendrisio, Ticino, Switzerland — Yesterday and Last 2 Weeks

Now
72 °F

Mild.


Feels Like: 76 °F
Forecast: 46 / 60 °F
Wind: 2 mph from Southwest

Location: Stabio

Current Time: Sep 26, 2016 at 5:41:31 PM

Latest Report: Sep 26, 2016 at 4:00 PM


Visibility: N/A

Pressure: 30.09 "Hg

Humidity: 59%

Dew Point: 56 °F

Location of MendrisioLocation

Past Weather in Mendrisio — Graph

°F

Mendrisio Temperature Yesterday

Maximum temperature yesterday: 73 °F (at 3:00 PM)
Minimum temperature yesterday: 50 °F (at 6:00 AM)
Average temperature yesterday: 59 °F

High & Low Weather Summary for the Past Weeks

 TemperatureHumidityPressure
High83 °F (Sep 11, 4:00 PM)100% (Sep 17, 3:00 AM)30.34 "Hg (Sep 17, 3:00 AM)
Low50 °F (Sep 25, 6:00 AM)29% (Sep 19, 3:00 PM)29.80 "Hg (Sep 19, 3:00 PM)
Average63 °F82%30.03 "Hg
* Reported Sep 11 4:00 PM — Sep 26 4:00 PM, Mendrisio, Weather by CustomWeather, © 2016

Note: Actual official high and low records may vary slightly from our data, if they occured in-between our weather recording intervals... More about our weather records

Advertising

Mendrisio Weather History for the Previous 24 Hours

Scroll right to see more
 ConditionsComfort  
Time TempWeatherWind HumidityBarometerVisibility
4:00 PM
Mon, Sep 26
72 °FMild.2 mph59%30.09 "HgN/A
3:00 PM71 °FMild.1 mph62%30.10 "HgN/A
2:00 PM72 °FMild.3 mph64%30.10 "HgN/A
1:00 PM69 °FMild.2 mph62%30.12 "HgN/A
12:00 PM68 °FMild.3 mph65%30.13 "HgN/A
11:00 AM65 °FMild.2 mph73%30.14 "HgN/A
10:00 AM60 °FCool.2 mph86%30.14 "HgN/A
9:00 AM56 °FCool.No wind95%30.15 "HgN/A
8:00 AM51 °FCool.1 mph99%30.15 "HgN/A
7:00 AM51 °FCool.1 mph95%30.14 "HgN/A
6:00 AM50 °FCool.1 mph97%30.14 "HgN/A
5:00 AM50 °FCool.1 mph97%30.14 "HgN/A
4:00 AM51 °FCool.1 mph97%30.14 "HgN/A
3:00 AM51 °FCool.1 mph97%30.14 "HgN/A
2:00 AM51 °FCool.No wind96%30.14 "HgN/A
1:00 AM52 °FCool.1 mph95%30.13 "HgN/A
12:00 AM53 °FCool.1 mph96%30.13 "HgN/A
11:00 PM
Sun, Sep 25
53 °FCool.1 mph95%30.13 "HgN/A
10:00 PM54 °FCool.1 mph90%30.13 "HgN/A
9:00 PM54 °FCool.1 mph96%30.12 "HgN/A
8:00 PM56 °FCool.1 mph80%30.10 "HgN/A
7:00 PM60 °FCool.1 mph83%30.09 "HgN/A
6:00 PM70 °FMild.3 mph57%30.06 "HgN/A
5:00 PM72 °FMild.3 mph51%30.06 "HgN/A
Weather by CustomWeather, © 2016

See weather overviewHow to use our weather pages